Private Wetterstation Wechselburg
Wetterdaten: Samstag, 15.06.2019
Datum Zeit Temp. +2m Bodentemp. Temp.+5cm Temp. Wind Windchill X Diff Temp. Feuchte +2m Feuchte +5cm Luftdruck Regen Wind Richtung Richtung Sonnenschein Taupunkt Windchill Windben
15.06.2019 00:00 20,2 C 19,9 C 19,4 C 19,9 C 19,4 C 0,0 C 74 % 78 % 1014,8 hPa 0,0 l/m 0,0 km/h (0 Bft) NO 45 0 min 15,4 C 19,4 C 0,0 km/h (0 Bft)
15.06.2019 00:05 20,2 C 19,9 C 19,3 C 19,9 C 19,3 C 0,0 C 74 % 78 % 1013,9 hPa 0,0 l/m 0,0 km/h (0 Bft) NO 45 0 min 15,4 C 19,3 C 0,0 km/h (0 Bft)
15.06.2019 00:11 20,1 C 19,9 C 19,3 C 19,8 C 19,3 C 0,0 C 74 % 79 % 1013,9 hPa 0,0 l/m 0,0 km/h (0 Bft) N 0 0 min 15,3 C 19,3 C 0,0 km/h (0 Bft)
15.06.2019 00:26 20,3 C 19,9 C 19,6 C 20,2 C 19,9 C 0,0 C 77 % 81 % 1013,7 hPa 0,0 l/m 1,6 km/h (1 Bft) NO 45 0 min 16,1 C 19,9 C 3,4 km/h (1 Bft)
15.06.2019 00:27 20,3 C 19,9 C 19,6 C 20,2 C 19,9 C 0,0 C 77 % 81 % 1013,7 hPa 0,0 l/m 1,6 km/h (1 Bft) NO 45 0 min 16,1 C 19,9 C 3,4 km/h (1 Bft)
15.06.2019 00:40 21,1 C 19,9 C 20,3 C 21,0 C 20,8 C 0,0 C 78 % 79 % 1013,7 hPa 0,0 l/m 3,9 km/h (1 Bft) NO 45 0 min 17,1 C 20,8 C 6,8 km/h (2 Bft)
15.06.2019 00:45 21,3 C 19,9 C 20,5 C 21,2 C 21,0 C 0,0 C 77 % 79 % 1013,2 hPa 0,0 l/m 4,3 km/h (1 Bft) O-NO 67 0 min 17,1 C 21,0 C 8,2 km/h (2 Bft)
15.06.2019 00:50 21,3 C 19,9 C 20,7 C 21,2 C 21,1 C 0,0 C 77 % 78 % 1013,2 hPa 0,0 l/m 4,5 km/h (1 Bft) O-NO 67 0 min 17,1 C 21,1 C 6,1 km/h (2 Bft)
15.06.2019 00:55 21,5 C 19,8 C 20,7 C 21,4 C 21,3 C 0,0 C 77 % 78 % 1013,2 hPa 0,0 l/m 4,3 km/h (1 Bft) O-NO 67 0 min 17,3 C 21,3 C 6,8 km/h (2 Bft)
15.06.2019 01:00 21,6 C 19,7 C 20,8 C 21,5 C 21,4 C 0,0 C 76 % 78 % 1013,2 hPa 0,0 l/m 4,2 km/h (1 Bft) NO 45 0 min 17,2 C 21,4 C 3,4 km/h (1 Bft)
15.06.2019 01:05 21,7 C 19,7 C 20,8 C 21,6 C 21,3 C 0,0 C 76 % 78 % 1012,8 hPa 0,0 l/m 2,9 km/h (1 Bft) O-NO 67 0 min 17,3 C 21,3 C 2,4 km/h (1 Bft)
15.06.2019 01:10 21,6 C 19,7 C 20,7 C 21,5 C 21,3 C 0,0 C 76 % 78 % 1012,8 hPa 0,0 l/m 2,1 km/h (1 Bft) O-NO 67 0 min 17,2 C 21,3 C 2,9 km/h (1 Bft)
15.06.2019 01:15 21,5 C 19,7 C 20,6 C 21,4 C 21,1 C 0,0 C 76 % 78 % 1012,8 hPa 0,0 l/m 1,8 km/h (1 Bft) O-NO 67 0 min 17,1 C 21,1 C 3,5 km/h (1 Bft)
15.06.2019 01:20 21,5 C 19,7 C 20,7 C 21,4 C 21,2 C 0,0 C 76 % 78 % 1012,8 hPa 0,0 l/m 2,7 km/h (1 Bft) O-NO 67 0 min 17,1 C 21,2 C 4,5 km/h (1 Bft)
15.06.2019 01:25 21,7 C 19,7 C 20,9 C 21,6 C 21,4 C 0,0 C 76 % 78 % 1012,6 hPa 0,0 l/m 3,9 km/h (1 Bft) N-NO 22 0 min 17,3 C 21,4 C 11,3 km/h (2 Bft)
15.06.2019 01:30 21,7 C 19,7 C 21,0 C 21,6 C 21,5 C 0,0 C 76 % 77 % 1012,6 hPa 0,0 l/m 4,3 km/h (1 Bft) O-NO 67 0 min 17,3 C 21,5 C 5,6 km/h (1 Bft)
15.06.2019 01:35 21,7 C 19,7 C 21,0 C 21,7 C 21,6 C 0,0 C 76 % 77 % 1012,6 hPa 0,0 l/m 3,4 km/h (1 Bft) O-NO 67 0 min 17,3 C 21,6 C 3,2 km/h (1 Bft)
15.06.2019 01:40 21,7 C 19,7 C 21,0 C 21,6 C 21,5 C 0,0 C 76 % 77 % 1012,6 hPa 0,0 l/m 2,7 km/h (1 Bft) NO 45 0 min 17,3 C 21,5 C 1,8 km/h (1 Bft)
15.06.2019 01:45 21,7 C 19,7 C 20,8 C 21,6 C 21,4 C 0,0 C 76 % 78 % 1011,8 hPa 0,0 l/m 1,1 km/h (1 Bft) NO 45 0 min 17,3 C 21,4 C 0,0 km/h (0 Bft)
15.06.2019 01:50 21,7 C 19,7 C 20,7 C 21,6 C 21,3 C 0,0 C 76 % 78 % 1011,8 hPa 0,0 l/m 0,2 km/h (0 Bft) NO 45 0 min 17,3 C 21,3 C 0,0 km/h (0 Bft)
15.06.2019 01:55 21,5 C 19,7 C 20,7 C 21,4 C 21,1 C 0,0 C 76 % 78 % 1011,8 hPa 0,0 l/m 1,0 km/h (0 Bft) N-NO 22 0 min 17,1 C 21,1 C 0,0 km/h (0 Bft)
15.06.2019 02:00 21,5 C 19,7 C 20,6 C 21,4 C 21,1 C 0,0 C 76 % 78 % 1011,8 hPa 0,0 l/m 1,0 km/h (0 Bft) SO 135 0 min 17,1 C 21,1 C 0,0 km/h (0 Bft)
15.06.2019 02:05 21,4 C 19,7 C 20,6 C 21,3 C 21,1 C 0,0 C 76 % 78 % 1011,1 hPa 0,0 l/m 0,8 km/h (0 Bft) S 180 0 min 17,0 C 21,1 C 5,0 km/h (1 Bft)
15.06.2019 02:11 21,4 C 19,7 C 20,6 C 21,3 C 21,1 C 0,0 C 76 % 79 % 1011,1 hPa 0,0 l/m 1,0 km/h (0 Bft) N 0 0 min 17,0 C 21,1 C 0,0 km/h (0 Bft)
15.06.2019 02:26 21,5 C 19,7 C 20,7 C 21,4 C 21,2 C 0,0 C 76 % 78 % 1011,1 hPa 0,0 l/m 1,0 km/h (0 Bft) W 270 0 min 17,1 C 21,2 C 2,4 km/h (1 Bft)
15.06.2019 02:35 21,7 C 19,7 C 20,8 C 21,6 C 21,5 C 0,0 C 76 % 78 % 1011,1 hPa 0,0 l/m 1,1 km/h (1 Bft) N-NO 22 0 min 17,3 C 21,5 C 0,0 km/h (0 Bft)
15.06.2019 02:40 21,8 C 19,7 C 20,9 C 21,7 C 21,6 C 0,0 C 76 % 78 % 1011,1 hPa 0,0 l/m 1,1 km/h (1 Bft) O-NO 67 0 min 17,4 C 21,6 C 3,4 km/h (1 Bft)
15.06.2019 02:45 21,9 C 19,7 C 21,0 C 21,8 C 21,7 C 0,0 C 76 % 78 % 1011,4 hPa 0,0 l/m 2,9 km/h (1 Bft) O-SO 112 0 min 17,5 C 21,7 C 4,3 km/h (1 Bft)
15.06.2019 02:50 21,9 C 19,7 C 21,1 C 21,9 C 21,8 C 0,0 C 76 % 78 % 1011,4 hPa 0,0 l/m 3,9 km/h (1 Bft) O-NO 67 0 min 17,5 C 21,8 C 5,5 km/h (1 Bft)
15.06.2019 02:55 21,9 C 19,7 C 21,1 C 21,8 C 21,7 C 0,0 C 75 % 78 % 1011,4 hPa 0,0 l/m 3,7 km/h (1 Bft) O-NO 67 0 min 17,3 C 21,7 C 3,4 km/h (1 Bft)
15.06.2019 03:00 21,8 C 19,7 C 21,0 C 21,8 C 21,7 C 0,0 C 76 % 78 % 1011,4 hPa 0,0 l/m 3,2 km/h (1 Bft) O-NO 67 0 min 17,4 C 21,7 C 4,2 km/h (1 Bft)
15.06.2019 03:05 21,9 C 19,7 C 21,1 C 21,8 C 21,6 C 0,0 C 76 % 78 % 1011,1 hPa 0,0 l/m 3,1 km/h (1 Bft) NO 45 0 min 17,5 C 21,6 C 4,2 km/h (1 Bft)
15.06.2019 03:10 21,9 C 19,7 C 21,1 C 21,8 C 21,6 C 0,0 C 76 % 77 % 1011,1 hPa 0,0 l/m 3,2 km/h (1 Bft) O-NO 67 0 min 17,5 C 21,6 C 4,2 km/h (1 Bft)
15.06.2019 03:15 21,7 C 19,7 C 21,0 C 21,6 C 21,5 C 0,0 C 76 % 78 % 1011,1 hPa 0,0 l/m 3,9 km/h (1 Bft) O 90 0 min 17,3 C 21,5 C 6,0 km/h (2 Bft)
15.06.2019 03:20 21,7 C 19,7 C 21,0 C 21,6 C 21,5 C 0,0 C 76 % 78 % 1011,1 hPa 0,0 l/m 4,2 km/h (1 Bft) O-NO 67 0 min 17,3 C 21,5 C 5,3 km/h (1 Bft)
15.06.2019 03:25 21,7 C 19,7 C 20,9 C 21,6 C 21,4 C 0,0 C 76 % 78 % 1010,8 hPa 0,0 l/m 4,0 km/h (1 Bft) O-NO 67 0 min 17,3 C 21,4 C 5,1 km/h (1 Bft)
15.06.2019 03:30 21,6 C 19,7 C 20,9 C 21,5 C 21,4 C 0,0 C 76 % 78 % 1010,8 hPa 0,0 l/m 5,1 km/h (1 Bft) O-NO 67 0 min 17,2 C 21,4 C 8,4 km/h (2 Bft)
15.06.2019 03:35 21,6 C 19,7 C 20,9 C 21,5 C 21,3 C 0,0 C 77 % 79 % 1010,8 hPa 0,0 l/m 6,4 km/h (2 Bft) NO 45 0 min 17,4 C 21,3 C 6,3 km/h (2 Bft)
15.06.2019 03:40 21,5 C 19,7 C 20,8 C 21,4 C 21,3 C 0,0 C 77 % 79 % 1010,8 hPa 0,0 l/m 5,8 km/h (2 Bft) O 90 0 min 17,3 C 21,3 C 6,0 km/h (2 Bft)
15.06.2019 03:45 21,5 C 19,7 C 20,8 C 21,4 C 21,2 C 0,0 C 78 % 80 % 1009,9 hPa 0,0 l/m 5,1 km/h (1 Bft) O-NO 67 0 min 17,5 C 21,2 C 9,8 km/h (2 Bft)
15.06.2019 03:50 21,5 C 19,7 C 20,7 C 21,4 C 21,2 C 0,0 C 78 % 80 % 1009,9 hPa 0,0 l/m 5,5 km/h (1 Bft) O-NO 67 0 min 17,5 C 21,2 C 7,1 km/h (2 Bft)
15.06.2019 03:55 21,5 C 19,7 C 20,7 C 21,4 C 21,1 C 0,0 C 78 % 80 % 1009,9 hPa 0,0 l/m 5,6 km/h (1 Bft) O-NO 67 0 min 17,5 C 21,1 C 6,6 km/h (2 Bft)
15.06.2019 04:00 21,5 C 19,7 C 20,7 C 21,4 C 21,1 C 0,0 C 78 % 80 % 1009,9 hPa 0,0 l/m 4,0 km/h (1 Bft) O 90 0 min 17,5 C 21,1 C 2,4 km/h (1 Bft)
15.06.2019 04:05 21,5 C 19,7 C 20,6 C 21,3 C 20,9 C 0,0 C 78 % 81 % 1010,1 hPa 0,0 l/m 1,6 km/h (1 Bft) O-NO 67 0 min 17,5 C 20,9 C 4,2 km/h (1 Bft)
15.06.2019 04:11 21,5 C 19,7 C 20,6 C 21,3 C 20,9 C 0,0 C 79 % 81 % 1010,1 hPa 0,0 l/m 2,1 km/h (1 Bft) N 0 0 min 17,7 C 20,9 C 3,2 km/h (1 Bft)
15.06.2019 04:26 21,5 C 19,7 C 20,7 C 21,3 C 20,9 C 0,0 C 79 % 82 % 1010,1 hPa 0,0 l/m 3,4 km/h (1 Bft) O-NO 67 0 min 17,7 C 20,9 C 3,4 km/h (1 Bft)
15.06.2019 04:35 21,3 C 19,7 C 20,6 C 21,1 C 20,8 C 0,0 C 80 % 82 % 1010,1 hPa 0,0 l/m 2,4 km/h (1 Bft) O-NO 67 0 min 17,7 C 20,8 C 3,4 km/h (1 Bft)
15.06.2019 04:40 21,2 C 19,7 C 20,6 C 21,0 C 20,7 C 0,0 C 80 % 82 % 1010,1 hPa 0,0 l/m 2,7 km/h (1 Bft) NO 45 0 min 17,6 C 20,7 C 3,2 km/h (1 Bft)
15.06.2019 04:45 21,3 C 19,7 C 20,4 C 21,1 C 20,6 C 0,0 C 80 % 83 % 1009,7 hPa 0,0 l/m 2,9 km/h (1 Bft) O-NO 67 0 min 17,7 C 20,6 C 1,9 km/h (1 Bft)
15.06.2019 04:50 21,1 C 19,8 C 20,4 C 20,9 C 20,5 C 0,0 C 80 % 83 % 1009,7 hPa 0,0 l/m 2,3 km/h (1 Bft) O-NO 67 0 min 17,5 C 20,5 C 0,0 km/h (0 Bft)
15.06.2019 04:55 21,1 C 19,8 C 20,3 C 20,9 C 20,4 C 0,0 C 81 % 84 % 1009,7 hPa 0,0 l/m 2,4 km/h (1 Bft) NO 45 0 min 17,7 C 20,4 C 5,5 km/h (1 Bft)
15.06.2019 05:00 21,1 C 19,8 C 20,4 C 20,9 C 20,5 C 0,0 C 81 % 84 % 1009,7 hPa 0,0 l/m 3,5 km/h (1 Bft) O-SO 112 0 min 17,7 C 20,5 C 3,7 km/h (1 Bft)
15.06.2019 05:05 21,0 C 19,8 C 20,4 C 20,8 C 20,4 C 0,0 C 81 % 84 % 1009,4 hPa 0,0 l/m 2,6 km/h (1 Bft) O 90 0 min 17,6 C 20,4 C 0,0 km/h (0 Bft)
15.06.2019 05:10 21,0 C 19,9 C 20,2 C 20,7 C 20,2 C 0,0 C 81 % 84 % 1009,4 hPa 0,0 l/m 1,0 km/h (0 Bft) NO 45 0 min 17,6 C 20,2 C 0,0 km/h (0 Bft)
15.06.2019 05:15 20,9 C 19,9 C 20,1 C 20,6 C 20,0 C 0,0 C 81 % 84 % 1009,4 hPa 0,0 l/m 0,0 km/h (0 Bft) N-NO 22 0 min 17,5 C 20,0 C 0,0 km/h (0 Bft)
15.06.2019 05:20 20,9 C 19,9 C 19,9 C 20,6 C 19,9 C 0,0 C 81 % 84 % 1009,4 hPa 0,0 l/m 0,0 km/h (0 Bft) O-NO 67 0 min 17,5 C 19,9 C 0,0 km/h (0 Bft)
15.06.2019 05:25 20,7 C 19,9 C 19,8 C 20,4 C 19,7 C 0,0 C 82 % 85 % 1009,2 hPa 0,0 l/m 0,2 km/h (0 Bft) O-NO 67 0 min 17,5 C 19,7 C 2,6 km/h (1 Bft)
15.06.2019 05:30 20,6 C 19,9 C 19,8 C 20,3 C 19,7 C 0,0 C 82 % 85 % 1009,2 hPa 0,0 l/m 0,3 km/h (0 Bft) NO 45 0 min 17,4 C 19,7 C 0,0 km/h (0 Bft)
15.06.2019 05:35 20,6 C 19,9 C 19,8 C 20,3 C 19,7 C 0,0 C 82 % 85 % 1009,2 hPa 0,0 l/m 0,3 km/h (0 Bft) W 270 0 min 17,4 C 19,7 C 0,0 km/h (0 Bft)
15.06.2019 05:40 20,5 C 19,9 C 19,8 C 20,2 C 19,7 C 0,0 C 82 % 85 % 1009,2 hPa 0,0 l/m 0,0 km/h (0 Bft) O-NO 67 0 min 17,3 C 19,7 C 0,0 km/h (0 Bft)
15.06.2019 05:45 20,5 C 19,9 C 19,7 C 20,2 C 19,7 C 0,0 C 82 % 85 % 1009,1 hPa 0,0 l/m 0,0 km/h (0 Bft) NO 45 0 min 17,3 C 19,7 C 0,0 km/h (0 Bft)
15.06.2019 05:50 20,4 C 19,9 C 19,7 C 20,2 C 19,7 C 0,0 C 83 % 86 % 1009,1 hPa 0,0 l/m 0,0 km/h (0 Bft) O-SO 112 0 min 17,4 C 19,7 C 0,0 km/h (0 Bft)
15.06.2019 05:55 20,5 C 19,9 C 19,8 C 20,3 C 19,9 C 0,0 C 83 % 86 % 1009,1 hPa 0,0 l/m 0,3 km/h (0 Bft) O-NO 67 0 min 17,5 C 19,9 C 2,9 km/h (1 Bft)
15.06.2019 06:00 20,5 C 19,9 C 19,9 C 20,4 C 20,1 C 0,0 C 84 % 86 % 1009,1 hPa 0,0 l/m 0,3 km/h (0 Bft) O-NO 67 0 min 17,7 C 20,1 C 0,0 km/h (0 Bft)
15.06.2019 06:05 20,5 C 19,9 C 20,0 C 20,4 C 20,2 C 0,0 C 84 % 86 % 1009,1 hPa 0,0 l/m 0,3 km/h (0 Bft) NO 45 0 min 17,7 C 20,2 C 0,0 km/h (0 Bft)
15.06.2019 06:11 20,5 C 19,9 C 20,0 C 20,4 C 20,2 C 0,0 C 84 % 86 % 1009,1 hPa 0,0 l/m 0,3 km/h (0 Bft) N 0 0 min 17,7 C 20,2 C 0,0 km/h (0 Bft)
15.06.2019 06:26 20,7 C 19,9 C 20,4 C 21,0 C 21,0 C 0,3 C 85 % 86 % 1009,2 hPa 0,0 l/m 1,1 km/h (1 Bft) O-NO 67 0 min 18,1 C 21,0 C 2,3 km/h (1 Bft)
15.06.2019 06:35 20,8 C 19,8 C 20,6 C 21,5 C 21,5 C 0,7 C 85 % 86 % 1009,2 hPa 0,0 l/m 0,5 km/h (0 Bft) NO 45 0 min 18,2 C 21,5 C 0,0 km/h (0 Bft)
15.06.2019 06:40 20,9 C 19,8 C 20,8 C 21,8 C 21,8 C 0,9 C 85 % 86 % 1009,2 hPa 0,0 l/m 0,0 km/h (0 Bft) O-NO 67 0 min 18,3 C 21,8 C 0,0 km/h (0 Bft)
15.06.2019 06:45 21,1 C 19,8 C 21,0 C 22,5 C 22,5 C 1,4 C 85 % 86 % 1009,1 hPa 0,0 l/m 0,2 km/h (0 Bft) O-NO 67 0 min 18,5 C 22,5 C 1,8 km/h (1 Bft)
15.06.2019 06:50 21,3 C 19,8 C 21,3 C 22,8 C 22,8 C 1,5 C 85 % 86 % 1009,1 hPa 0,0 l/m 0,6 km/h (0 Bft) NO 45 0 min 18,7 C 22,8 C 0,0 km/h (0 Bft)
15.06.2019 06:55 21,6 C 19,7 C 21,5 C 23,4 C 23,4 C 1,8 C 85 % 85 % 1009,1 hPa 0,0 l/m 0,5 km/h (0 Bft) O-NO 67 0 min 19,0 C 23,4 C 0,0 km/h (0 Bft)
15.06.2019 07:00 21,7 C 19,8 C 21,5 C 23,4 C 23,4 C 1,7 C 85 % 85 % 1009,1 hPa 0,0 l/m 0,0 km/h (0 Bft) O-NO 67 0 min 19,1 C 23,4 C 0,0 km/h (0 Bft)
15.06.2019 07:05 21,8 C 19,8 C 21,4 C 23,0 C 23,0 C 1,2 C 85 % 84 % 1008,9 hPa 0,0 l/m 0,2 km/h (0 Bft) O-SO 112 0 min 19,2 C 23,0 C 0,0 km/h (0 Bft)
15.06.2019 07:10 21,9 C 19,8 C 21,3 C 22,8 C 22,8 C 0,9 C 84 % 85 % 1008,9 hPa 0,0 l/m 0,2 km/h (0 Bft) O 90 0 min 19,1 C 22,8 C 0,0 km/h (0 Bft)
15.06.2019 07:15 21,9 C 19,8 C 21,2 C 22,5 C 22,5 C 0,6 C 84 % 85 % 1008,9 hPa 0,0 l/m 0,0 km/h (0 Bft) O-NO 67 0 min 19,1 C 22,5 C 0,0 km/h (0 Bft)
15.06.2019 07:20 21,9 C 19,8 C 21,2 C 22,4 C 22,4 C 0,5 C 84 % 85 % 1008,9 hPa 0,0 l/m 0,2 km/h (0 Bft) NO 45 0 min 19,1 C 22,4 C 0,0 km/h (0 Bft)
15.06.2019 07:25 21,9 C 19,8 C 21,1 C 22,2 C 22,2 C 0,3 C 84 % 85 % 1008,8 hPa 0,0 l/m 0,3 km/h (0 Bft) O-SO 112 0 min 19,1 C 22,2 C 0,0 km/h (0 Bft)
15.06.2019 07:30 21,8 C 19,8 C 21,1 C 22,1 C 22,1 C 0,3 C 84 % 86 % 1008,8 hPa 0,0 l/m 0,3 km/h (0 Bft) O-SO 112 0 min 19,0 C 22,1 C 0,0 km/h (0 Bft)
15.06.2019 07:35 21,8 C 19,8 C 21,3 C 22,2 C 22,2 C 0,4 C 84 % 86 % 1008,8 hPa 0,0 l/m 0,0 km/h (0 Bft) O-NO 67 0 min 19,0 C 22,2 C 0,0 km/h (0 Bft)
15.06.2019 07:40 22,0 C 19,8 C 21,4 C 22,4 C 22,4 C 0,4 C 84 % 85 % 1008,8 hPa 0,0 l/m 0,0 km/h (0 Bft) O-SO 112 0 min 19,2 C 22,4 C 0,0 km/h (0 Bft)
15.06.2019 07:45 22,1 C 19,8 C 21,6 C 23,2 C 23,2 C 1,1 C 84 % 85 % 1008,9 hPa 0,0 l/m 0,0 km/h (0 Bft) NO 45 0 min 19,3 C 23,2 C 0,0 km/h (0 Bft)
15.06.2019 07:50 22,3 C 19,9 C 21,7 C 23,4 C 23,4 C 1,1 C 85 % 85 % 1008,9 hPa 0,0 l/m 0,0 km/h (0 Bft) O-NO 67 0 min 19,7 C 23,4 C 0,0 km/h (0 Bft)
15.06.2019 07:55 22,4 C 19,9 C 21,9 C 23,8 C 23,8 C 1,4 C 85 % 86 % 1008,9 hPa 0,0 l/m 0,6 km/h (0 Bft) O-NO 67 0 min 19,7 C 23,8 C 0,0 km/h (0 Bft)
15.06.2019 08:00 22,6 C 19,9 C 22,0 C 24,4 C 24,4 C 1,8 C 85 % 86 % 1008,9 hPa 0,0 l/m 0,6 km/h (0 Bft) NO 45 0 min 19,9 C 24,4 C 0,0 km/h (0 Bft)
15.06.2019 08:05 23,0 C 19,8 C 22,2 C 26,9 C 26,9 C 3,9 C 85 % 85 % 1009,1 hPa 0,0 l/m 0,0 km/h (0 Bft) O-SO 112 5 min 20,3 C 26,9 C 0,0 km/h (0 Bft)
15.06.2019 08:11 23,2 C 19,8 C 22,3 C 28,6 C 28,6 C 5,4 C 85 % 86 % 1009,1 hPa 0,0 l/m 0,0 km/h (0 Bft) N 0 6 min 20,5 C 28,6 C 0,0 km/h (0 Bft)
15.06.2019 08:26 24,3 C 19,8 C 22,7 C 30,6 C 30,6 C 6,3 C 83 % 86 % 1009,2 hPa 0,0 l/m 0,0 km/h (0 Bft) S-SO 157 15 min 21,2 C 30,6 C 0,0 km/h (0 Bft)
15.06.2019 08:35 24,9 C 19,8 C 23,2 C 32,3 C 32,3 C 7,4 C 82 % 85 % 1009,2 hPa 0,0 l/m 0,0 km/h (0 Bft) W-SW 247 9 min 21,6 C 32,3 C 0,0 km/h (0 Bft)
15.06.2019 08:40 25,3 C 19,8 C 23,4 C 33,4 C 33,4 C 8,1 C 80 % 84 % 1009,2 hPa 0,0 l/m 0,0 km/h (0 Bft) W-SW 247 5 min 21,6 C 33,4 C 0,0 km/h (0 Bft)
15.06.2019 08:45 25,8 C 19,7 C 23,6 C 34,8 C 34,8 C 9,0 C 79 % 83 % 1009,3 hPa 0,0 l/m 0,0 km/h (0 Bft) S-SO 157 5 min 21,9 C 34,8 C 0,0 km/h (0 Bft)
15.06.2019 08:50 26,2 C 19,7 C 23,8 C 34,7 C 34,7 C 8,5 C 77 % 82 % 1009,3 hPa 0,0 l/m 0,0 km/h (0 Bft) N-NO 22 5 min 21,8 C 34,7 C 0,0 km/h (0 Bft)
15.06.2019 08:55 26,7 C 19,8 C 23,9 C 32,8 C 32,8 C 6,1 C 75 % 82 % 1009,3 hPa 0,0 l/m 0,0 km/h (0 Bft) N-NO 22 5 min 21,9 C 32,8 C 0,0 km/h (0 Bft)
15.06.2019 09:00 26,8 C 19,7 C 24,0 C 32,0 C 32,0 C 5,2 C 74 % 82 % 1009,3 hPa 0,0 l/m 0,0 km/h (0 Bft) O-NO 67 5 min 21,8 C 32,0 C 0,0 km/h (0 Bft)
15.06.2019 09:05 27,0 C 19,8 C 24,3 C 31,8 C 31,8 C 4,8 C 73 % 79 % 1009,1 hPa 0,0 l/m 0,0 km/h (0 Bft) N 360 5 min 21,7 C 31,8 C 0,0 km/h (0 Bft)
15.06.2019 09:10 27,3 C 19,8 C 24,3 C 32,1 C 32,1 C 4,8 C 72 % 79 % 1009,1 hPa 0,0 l/m 0,0 km/h (0 Bft) W-SW 247 5 min 21,8 C 32,1 C 0,0 km/h (0 Bft)
15.06.2019 09:15 27,5 C 19,8 C 24,3 C 33,2 C 33,2 C 5,7 C 72 % 80 % 1009,1 hPa 0,0 l/m 0,0 km/h (0 Bft) SO 135 5 min 22,0 C 33,2 C 0,0 km/h (0 Bft)
15.06.2019 09:20 27,8 C 19,8 C 24,5 C 34,1 C 34,1 C 6,3 C 71 % 80 % 1009,1 hPa 0,0 l/m 0,0 km/h (0 Bft) O-NO 67 5 min 22,0 C 34,1 C 0,0 km/h (0 Bft)
15.06.2019 09:25 28,1 C 19,8 C 24,7 C 35,9 C 35,9 C 7,8 C 70 % 79 % 1009,6 hPa 0,0 l/m 0,0 km/h (0 Bft) SW 225 5 min 22,1 C 35,9 C 0,0 km/h (0 Bft)
15.06.2019 09:30 28,5 C 19,8 C 24,8 C 36,8 C 36,8 C 8,3 C 69 % 79 % 1009,6 hPa 0,0 l/m 0,0 km/h (0 Bft) N 360 5 min 22,2 C 36,8 C 0,0 km/h (0 Bft)
15.06.2019 09:35 28,9 C 19,8 C 25,1 C 38,3 C 38,3 C 9,4 C 67 % 78 % 1009,6 hPa 0,0 l/m 0,0 km/h (0 Bft) N-NO 22 5 min 22,1 C 38,3 C 0,0 km/h (0 Bft)
15.06.2019 09:40 29,2 C 19,9 C 25,2 C 38,8 C 38,8 C 9,6 C 66 % 78 % 1009,6 hPa 0,0 l/m 0,2 km/h (0 Bft) SW 225 5 min 22,2 C 38,8 C 4,8 km/h (1 Bft)
15.06.2019 09:45 29,2 C 19,9 C 25,4 C 36,3 C 36,3 C 7,1 C 65 % 76 % 1009,7 hPa 0,0 l/m 0,5 km/h (0 Bft) W-SW 247 5 min 21,9 C 36,3 C 0,0 km/h (0 Bft)
15.06.2019 09:50 29,1 C 19,9 C 25,5 C 34,7 C 34,7 C 5,6 C 63 % 75 % 1009,7 hPa 0,0 l/m 1,1 km/h (1 Bft) O 90 5 min 21,3 C 34,7 C 4,0 km/h (1 Bft)
15.06.2019 09:55 29,1 C 19,9 C 25,6 C 33,6 C 33,6 C 4,5 C 60 % 71 % 1009,7 hPa 0,0 l/m 1,4 km/h (1 Bft) S-SW 202 5 min 20,5 C 33,6 C 3,4 km/h (1 Bft)
15.06.2019 10:00 28,9 C 19,9 C 25,8 C 33,1 C 33,1 C 4,2 C 60 % 71 % 1009,7 hPa 0,0 l/m 1,8 km/h (1 Bft) S 180 5 min 20,3 C 33,1 C 1,8 km/h (1 Bft)
15.06.2019 10:05 28,9 C 19,9 C 25,9 C 32,9 C 32,9 C 4,0 C 60 % 70 % 1009,8 hPa 0,0 l/m 1,9 km/h (1 Bft) SW 225 5 min 20,3 C 32,9 C 2,6 km/h (1 Bft)
15.06.2019 10:11 29,0 C 19,9 C 26,0 C 33,5 C 33,5 C 4,5 C 60 % 69 % 1009,8 hPa 0,0 l/m 1,8 km/h (1 Bft) N 0 6 min 20,4 C 33,5 C 1,6 km/h (1 Bft)
15.06.2019 10:26 29,1 C 20,0 C 26,8 C 33,0 C 33,0 C 3,9 C 57 % 63 % 1009,8 hPa 0,0 l/m 3,5 km/h (1 Bft) S-SO 157 15 min 19,7 C 33,0 C 6,9 km/h (2 Bft)
15.06.2019 10:35 29,2 C 19,9 C 26,9 C 34,8 C 34,8 C 5,6 C 57 % 63 % 1009,8 hPa 0,0 l/m 3,1 km/h (1 Bft) S 180 9 min 19,8 C 34,8 C 3,4 km/h (1 Bft)
15.06.2019 10:40 29,3 C 19,9 C 26,6 C 34,9 C 34,9 C 5,6 C 57 % 65 % 1009,8 hPa 0,0 l/m 2,9 km/h (1 Bft) W-SW 247 5 min 19,9 C 34,9 C 2,4 km/h (1 Bft)
15.06.2019 10:45 29,2 C 20,0 C 26,6 C 34,0 C 34,0 C 4,8 C 57 % 64 % 1009,9 hPa 0,0 l/m 2,9 km/h (1 Bft) S-SO 157 5 min 19,8 C 34,0 C 2,6 km/h (1 Bft)
15.06.2019 10:50 29,2 C 20,0 C 26,6 C 34,0 C 34,0 C 4,8 C 57 % 65 % 1009,9 hPa 0,0 l/m 2,9 km/h (1 Bft) NW 315 5 min 19,8 C 34,0 C 11,7 km/h (2 Bft)
15.06.2019 10:55 29,2 C 20,0 C 26,7 C 33,2 C 33,2 C 4,0 C 56 % 62 % 1009,9 hPa 0,0 l/m 2,4 km/h (1 Bft) S 180 5 min 19,5 C 33,2 C 2,7 km/h (1 Bft)
15.06.2019 11:00 29,2 C 20,0 C 26,9 C 33,7 C 33,7 C 4,5 C 56 % 63 % 1009,9 hPa 0,0 l/m 2,3 km/h (1 Bft) SO 135 5 min 19,5 C 33,7 C 4,2 km/h (1 Bft)
15.06.2019 11:05 29,3 C 20,0 C 27,0 C 34,4 C 34,4 C 5,1 C 53 % 57 % 1009,8 hPa 0,0 l/m 2,6 km/h (1 Bft) S-SW 202 5 min 18,7 C 34,4 C 5,1 km/h (1 Bft)
15.06.2019 11:10 29,4 C 20,0 C 27,1 C 34,9 C 34,9 C 5,5 C 52 % 58 % 1009,8 hPa 0,0 l/m 3,1 km/h (1 Bft) W-SW 247 5 min 18,5 C 34,9 C 3,4 km/h (1 Bft)
15.06.2019 11:15 29,5 C 20,0 C 27,2 C 35,7 C 35,7 C 6,2 C 52 % 58 % 1009,8 hPa 0,0 l/m 2,9 km/h (1 Bft) SW 225 5 min 18,6 C 35,7 C 6,3 km/h (2 Bft)
15.06.2019 11:20 29,6 C 20,1 C 27,2 C 35,9 C 35,9 C 6,3 C 52 % 57 % 1009,8 hPa 0,0 l/m 2,3 km/h (1 Bft) S 180 5 min 18,7 C 35,9 C 0,0 km/h (0 Bft)
15.06.2019 11:25 29,6 C 20,1 C 27,1 C 36,2 C 36,2 C 6,6 C 52 % 57 % 1010,2 hPa 0,0 l/m 2,6 km/h (1 Bft) SO 135 5 min 18,7 C 36,2 C 4,8 km/h (1 Bft)
15.06.2019 11:30 29,5 C 20,1 C 27,2 C 36,1 C 36,1 C 6,6 C 52 % 58 % 1010,2 hPa 0,0 l/m 2,6 km/h (1 Bft) SW 225 5 min 18,6 C 36,1 C 2,9 km/h (1 Bft)
15.06.2019 11:35 29,5 C 20,1 C 27,2 C 35,8 C 35,8 C 6,3 C 52 % 58 % 1010,2 hPa 0,0 l/m 3,4 km/h (1 Bft) N-NW 337 5 min 18,6 C 35,8 C 3,1 km/h (1 Bft)
15.06.2019 11:40 29,4 C 20,1 C 27,3 C 35,7 C 35,7 C 6,3 C 52 % 58 % 1010,2 hPa 0,0 l/m 3,4 km/h (1 Bft) O-SO 112 5 min 18,5 C 35,7 C 4,5 km/h (1 Bft)
15.06.2019 11:45 29,5 C 20,1 C 27,5 C 35,1 C 35,1 C 5,6 C 54 % 59 % 1010,1 hPa 0,0 l/m 3,2 km/h (1 Bft) NO 45 5 min 19,2 C 35,1 C 4,2 km/h (1 Bft)
15.06.2019 11:50 29,5 C 20,1 C 27,5 C 34,7 C 34,7 C 5,2 C 53 % 58 % 1010,1 hPa 0,0 l/m 3,9 km/h (1 Bft) SW 225 5 min 18,9 C 34,7 C 5,6 km/h (1 Bft)
15.06.2019 11:55 29,6 C 20,2 C 27,6 C 34,5 C 34,5 C 4,9 C 50 % 55 % 1010,1 hPa 0,0 l/m 3,7 km/h (1 Bft) S-SW 202 5 min 18,1 C 34,5 C 2,3 km/h (1 Bft)
15.06.2019 12:00 29,5 C 20,2 C 27,5 C 33,7 C 33,7 C 4,2 C 50 % 53 % 1010,1 hPa 0,0 l/m 3,4 km/h (1 Bft) S-SO 157 5 min 18,0 C 33,7 C 5,6 km/h (1 Bft)
15.06.2019 12:05 29,5 C 20,2 C 27,4 C 33,1 C 33,1 C 3,6 C 50 % 54 % 1010,6 hPa 0,0 l/m 3,1 km/h (1 Bft) S-SW 202 5 min 18,0 C 33,1 C 4,3 km/h (1 Bft)
15.06.2019 12:11 29,5 C 20,2 C 27,4 C 33,1 C 33,1 C 3,6 C 50 % 54 % 1010,6 hPa 0,0 l/m 3,1 km/h (1 Bft) N 0 6 min 18,0 C 33,1 C 4,3 km/h (1 Bft)
15.06.2019 12:24 29,6 C 20,2 C 27,5 C 32,7 C 32,7 C 3,1 C 52 % 56 % 1010,8 hPa 0,0 l/m 2,1 km/h (1 Bft) S-SW 202 0 min 18,7 C 32,7 C 4,0 km/h (1 Bft)
15.06.2019 12:35 29,7 C 20,2 C 27,5 C 32,6 C 32,6 C 2,9 C 51 % 54 % 1010,8 hPa 0,0 l/m 3,2 km/h (1 Bft) O-SO 112 0 min 18,5 C 32,6 C 8,2 km/h (2 Bft)
15.06.2019 12:40 29,7 C 20,2 C 27,5 C 32,2 C 32,2 C 2,5 C 51 % 55 % 1010,8 hPa 0,0 l/m 3,5 km/h (1 Bft) W-SW 247 0 min 18,5 C 32,2 C 6,9 km/h (2 Bft)
15.06.2019 12:45 29,5 C 20,2 C 27,5 C 32,0 C 32,0 C 2,5 C 51 % 57 % 1011,1 hPa 0,0 l/m 3,5 km/h (1 Bft) S 180 0 min 18,3 C 32,0 C 8,2 km/h (2 Bft)
15.06.2019 12:50 29,6 C 20,2 C 27,5 C 32,2 C 32,2 C 2,6 C 50 % 56 % 1011,1 hPa 0,0 l/m 3,5 km/h (1 Bft) S-SO 157 0 min 18,1 C 32,2 C 5,5 km/h (1 Bft)
15.06.2019 12:55 29,7 C 20,3 C 27,7 C 32,4 C 32,4 C 2,7 C 51 % 56 % 1011,1 hPa 0,0 l/m 3,2 km/h (1 Bft) SW 225 0 min 18,5 C 32,4 C 4,5 km/h (1 Bft)
15.06.2019 13:00 29,7 C 20,3 C 27,7 C 32,7 C 32,7 C 3,0 C 51 % 57 % 1011,1 hPa 0,0 l/m 2,9 km/h (1 Bft) S-SO 157 0 min 18,5 C 32,7 C 2,7 km/h (1 Bft)
15.06.2019 13:05 29,7 C 20,3 C 27,8 C 32,7 C 32,7 C 3,0 C 51 % 57 % 1010,9 hPa 0,0 l/m 2,6 km/h (1 Bft) NW 315 0 min 18,5 C 32,7 C 3,7 km/h (1 Bft)
15.06.2019 13:10 30,0 C 20,3 C 28,2 C 33,7 C 33,7 C 3,7 C 52 % 58 % 1010,9 hPa 0,0 l/m 2,4 km/h (1 Bft) S-SO 157 5 min 19,0 C 33,7 C 0,0 km/h (0 Bft)
15.06.2019 13:15 30,5 C 20,3 C 28,5 C 35,0 C 35,0 C 4,5 C 50 % 54 % 1010,9 hPa 0,0 l/m 2,4 km/h (1 Bft) SO 135 5 min 18,9 C 35,0 C 5,3 km/h (1 Bft)
15.06.2019 13:20 30,5 C 20,3 C 28,1 C 34,3 C 34,3 C 3,8 C 49 % 55 % 1010,9 hPa 0,0 l/m 2,1 km/h (1 Bft) SO 135 5 min 18,6 C 34,3 C 3,4 km/h (1 Bft)
15.06.2019 13:25 30,3 C 20,3 C 28,0 C 34,0 C 34,0 C 3,7 C 50 % 55 % 1011,2 hPa 0,0 l/m 1,6 km/h (1 Bft) S-SW 202 5 min 18,7 C 34,0 C 0,0 km/h (0 Bft)
15.06.2019 13:30 30,4 C 20,3 C 28,0 C 34,4 C 34,4 C 4,0 C 50 % 58 % 1011,2 hPa 0,0 l/m 1,3 km/h (1 Bft) W-NW 292 5 min 18,8 C 34,4 C 1,6 km/h (1 Bft)
15.06.2019 13:35 30,5 C 20,4 C 28,2 C 34,7 C 34,7 C 4,2 C 50 % 55 % 1011,2 hPa 0,0 l/m 1,0 km/h (0 Bft) W-SW 247 5 min 18,9 C 34,7 C 3,9 km/h (1 Bft)
15.06.2019 13:40 30,8 C 20,4 C 28,3 C 35,4 C 35,4 C 4,6 C 49 % 56 % 1011,2 hPa 0,0 l/m 2,1 km/h (1 Bft) W-SW 247 5 min 18,8 C 35,4 C 11,6 km/h (2 Bft)
15.06.2019 13:45 30,9 C 20,4 C 28,4 C 35,8 C 35,8 C 4,9 C 47 % 55 % 1011,6 hPa 0,0 l/m 2,3 km/h (1 Bft) SO 135 5 min 18,2 C 35,8 C 2,1 km/h (1 Bft)
15.06.2019 13:50 31,0 C 20,4 C 28,4 C 36,2 C 36,2 C 5,2 C 46 % 54 % 1011,6 hPa 0,0 l/m 1,9 km/h (1 Bft) W-SW 247 5 min 18,0 C 36,2 C 4,5 km/h (1 Bft)
15.06.2019 13:55 30,9 C 20,4 C 28,6 C 36,3 C 36,3 C 5,4 C 46 % 54 % 1011,6 hPa 0,0 l/m 2,3 km/h (1 Bft) W-SW 247 5 min 17,9 C 36,3 C 3,7 km/h (1 Bft)
15.06.2019 14:00 30,9 C 20,4 C 28,8 C 36,2 C 36,2 C 5,3 C 47 % 53 % 1011,6 hPa 0,0 l/m 3,1 km/h (1 Bft) S 180 5 min 18,2 C 36,2 C 11,6 km/h (2 Bft)
15.06.2019 14:05 30,8 C 20,4 C 29,1 C 35,8 C 35,8 C 5,0 C 46 % 51 % 1011,6 hPa 0,0 l/m 4,2 km/h (1 Bft) SO 135 5 min 17,8 C 35,8 C 3,1 km/h (1 Bft)
15.06.2019 14:11 30,7 C 20,5 C 29,2 C 35,5 C 35,5 C 4,8 C 45 % 50 % 1011,6 hPa 0,0 l/m 4,8 km/h (1 Bft) N 0 6 min 17,4 C 35,5 C 10,5 km/h (2 Bft)
15.06.2019 14:26 30,8 C 20,4 C 29,7 C 35,8 C 35,8 C 5,0 C 46 % 50 % 1011,7 hPa 0,0 l/m 3,7 km/h (1 Bft) S-SO 157 15 min 17,8 C 35,8 C 14,6 km/h (3 Bft)
15.06.2019 14:35 30,7 C 20,4 C 29,3 C 35,8 C 35,8 C 5,1 C 46 % 50 % 1011,7 hPa 0,0 l/m 3,9 km/h (1 Bft) NW 315 9 min 17,7 C 35,8 C 14,8 km/h (3 Bft)
15.06.2019 14:40 30,3 C 20,5 C 28,9 C 34,7 C 34,7 C 4,4 C 48 % 52 % 1011,7 hPa 0,0 l/m 3,9 km/h (1 Bft) SW 225 5 min 18,0 C 34,7 C 2,4 km/h (1 Bft)
15.06.2019 14:45 29,7 C 20,5 C 28,5 C 33,4 C 33,4 C 3,7 C 49 % 53 % 1012,0 hPa 0,0 l/m 3,1 km/h (1 Bft) S-SO 157 5 min 17,8 C 33,4 C 5,6 km/h (1 Bft)
15.06.2019 14:50 29,6 C 20,5 C 28,5 C 33,1 C 33,1 C 3,5 C 50 % 53 % 1012,0 hPa 0,0 l/m 3,1 km/h (1 Bft) S 180 5 min 18,1 C 33,1 C 3,7 km/h (1 Bft)
15.06.2019 14:55 29,4 C 20,5 C 28,5 C 32,8 C 32,8 C 3,4 C 50 % 53 % 1012,0 hPa 0,0 l/m 3,5 km/h (1 Bft) SO 135 5 min 17,9 C 32,8 C 6,8 km/h (2 Bft)
15.06.2019 15:00 29,3 C 20,5 C 28,6 C 33,0 C 33,0 C 3,7 C 50 % 53 % 1012,0 hPa 0,0 l/m 3,5 km/h (1 Bft) NW 315 5 min 17,8 C 33,0 C 2,7 km/h (1 Bft)
15.06.2019 15:05 29,9 C 20,6 C 28,9 C 34,6 C 34,6 C 4,7 C 52 % 54 % 1012,1 hPa 0,0 l/m 2,9 km/h (1 Bft) O-NO 67 5 min 19,0 C 34,6 C 0,0 km/h (0 Bft)
15.06.2019 15:10 30,1 C 20,6 C 28,9 C 35,2 C 35,2 C 5,1 C 50 % 50 % 1012,1 hPa 0,0 l/m 3,1 km/h (1 Bft) NW 315 5 min 18,5 C 35,2 C 5,8 km/h (2 Bft)
15.06.2019 15:15 29,7 C 20,6 C 28,5 C 33,9 C 33,9 C 4,2 C 49 % 50 % 1012,1 hPa 0,0 l/m 3,7 km/h (1 Bft) SW 225 5 min 17,8 C 33,9 C 4,0 km/h (1 Bft)
15.06.2019 15:20 29,4 C 20,6 C 28,5 C 33,3 C 33,3 C 3,9 C 50 % 52 % 1012,1 hPa 0,0 l/m 3,5 km/h (1 Bft) NO 45 5 min 17,9 C 33,3 C 2,4 km/h (1 Bft)
15.06.2019 15:25 29,6 C 20,6 C 28,7 C 34,6 C 34,6 C 5,0 C 51 % 54 % 1012,1 hPa 0,0 l/m 2,6 km/h (1 Bft) NW 315 5 min 18,4 C 34,6 C 3,5 km/h (1 Bft)
15.06.2019 15:30 29,7 C 20,6 C 28,7 C 35,1 C 35,1 C 5,4 C 51 % 52 % 1012,1 hPa 0,0 l/m 2,4 km/h (1 Bft) SW 225 5 min 18,5 C 35,1 C 2,1 km/h (1 Bft)
15.06.2019 15:35 29,7 C 20,6 C 28,8 C 35,5 C 35,5 C 5,8 C 52 % 55 % 1012,1 hPa 0,0 l/m 2,6 km/h (1 Bft) W-SW 247 5 min 18,8 C 35,5 C 1,8 km/h (1 Bft)
15.06.2019 15:40 29,7 C 20,6 C 28,8 C 35,8 C 35,8 C 6,1 C 51 % 54 % 1012,1 hPa 0,0 l/m 2,1 km/h (1 Bft) SW 225 5 min 18,5 C 35,8 C 4,3 km/h (1 Bft)
15.06.2019 15:45 29,7 C 20,6 C 28,9 C 36,1 C 36,1 C 6,4 C 51 % 53 % 1012,1 hPa 0,0 l/m 2,4 km/h (1 Bft) S-SO 157 5 min 18,5 C 36,1 C 4,5 km/h (1 Bft)
15.06.2019 15:50 29,6 C 20,6 C 28,8 C 35,9 C 35,9 C 6,3 C 51 % 53 % 1012,1 hPa 0,0 l/m 2,9 km/h (1 Bft) SW 225 5 min 18,4 C 35,9 C 6,6 km/h (2 Bft)
15.06.2019 15:55 29,5 C 20,7 C 28,9 C 35,5 C 35,5 C 6,0 C 51 % 53 % 1012,1 hPa 0,0 l/m 3,7 km/h (1 Bft) S 180 5 min 18,3 C 35,5 C 4,2 km/h (1 Bft)
15.06.2019 16:00 29,4 C 20,7 C 28,8 C 35,1 C 35,1 C 5,7 C 50 % 53 % 1012,1 hPa 0,0 l/m 3,7 km/h (1 Bft) S 180 5 min 17,9 C 35,1 C 3,7 km/h (1 Bft)
15.06.2019 16:05 29,2 C 20,7 C 28,8 C 34,8 C 34,8 C 5,6 C 51 % 54 % 1012,3 hPa 0,0 l/m 3,7 km/h (1 Bft) SW 225 5 min 18,0 C 34,8 C 6,9 km/h (2 Bft)
15.06.2019 16:11 29,4 C 20,7 C 28,8 C 35,1 C 35,1 C 5,7 C 52 % 53 % 1012,3 hPa 0,0 l/m 3,5 km/h (1 Bft) N 0 6 min 18,5 C 35,1 C 3,2 km/h (1 Bft)
15.06.2019 16:26 28,8 C 20,7 C 28,9 C 34,2 C 34,2 C 5,4 C 51 % 53 % 1012,7 hPa 0,0 l/m 4,2 km/h (1 Bft) S 180 15 min 17,6 C 34,2 C 17,5 km/h (3 Bft)
15.06.2019 16:35 28,9 C 20,7 C 28,9 C 34,6 C 34,6 C 5,7 C 52 % 54 % 1012,7 hPa 0,0 l/m 1,9 km/h (1 Bft) SW 225 9 min 18,0 C 34,6 C 3,9 km/h (1 Bft)
15.06.2019 16:40 28,9 C 20,7 C 28,7 C 34,7 C 34,7 C 5,8 C 53 % 54 % 1012,7 hPa 0,0 l/m 2,4 km/h (1 Bft) SW 225 5 min 18,3 C 34,7 C 4,8 km/h (1 Bft)
15.06.2019 16:45 28,9 C 20,7 C 28,7 C 34,6 C 34,6 C 5,7 C 50 % 52 % 1012,6 hPa 0,0 l/m 2,9 km/h (1 Bft) S-SO 157 5 min 17,4 C 34,6 C 3,5 km/h (1 Bft)
15.06.2019 16:50 28,7 C 20,7 C 28,5 C 34,0 C 34,0 C 5,3 C 49 % 51 % 1012,6 hPa 0,0 l/m 2,7 km/h (1 Bft) S 180 5 min 16,9 C 34,0 C 1,9 km/h (1 Bft)
15.06.2019 16:55 28,5 C 20,7 C 28,3 C 34,2 C 34,2 C 5,7 C 51 % 52 % 1012,6 hPa 0,0 l/m 2,3 km/h (1 Bft) W-SW 247 5 min 17,4 C 34,2 C 6,6 km/h (2 Bft)
15.06.2019 17:00 28,6 C 20,7 C 28,3 C 34,4 C 34,4 C 5,8 C 51 % 52 % 1012,6 hPa 0,0 l/m 2,7 km/h (1 Bft) SW 225 5 min 17,4 C 34,4 C 5,8 km/h (2 Bft)
15.06.2019 17:05 28,4 C 20,7 C 28,4 C 34,2 C 34,2 C 5,8 C 51 % 52 % 1012,9 hPa 0,0 l/m 3,9 km/h (1 Bft) W-SW 247 5 min 17,3 C 34,2 C 4,7 km/h (1 Bft)
15.06.2019 17:10 28,4 C 20,7 C 28,3 C 34,2 C 34,2 C 5,8 C 51 % 52 % 1012,9 hPa 0,0 l/m 4,0 km/h (1 Bft) W-SW 247 5 min 17,3 C 34,2 C 7,7 km/h (2 Bft)
15.06.2019 17:15 28,5 C 20,7 C 28,3 C 34,0 C 34,0 C 5,5 C 49 % 50 % 1012,9 hPa 0,0 l/m 4,2 km/h (1 Bft) W-SW 247 5 min 16,7 C 34,0 C 3,4 km/h (1 Bft)
15.06.2019 17:20 28,2 C 20,7 C 28,2 C 33,8 C 33,8 C 5,6 C 50 % 50 % 1012,9 hPa 0,0 l/m 4,3 km/h (1 Bft) W-SW 247 5 min 16,8 C 33,8 C 6,4 km/h (2 Bft)
15.06.2019 17:25 28,0 C 20,7 C 28,1 C 33,4 C 33,4 C 5,4 C 50 % 50 % 1012,6 hPa 0,0 l/m 4,5 km/h (1 Bft) S-SW 202 5 min 16,6 C 33,4 C 3,1 km/h (1 Bft)
15.06.2019 17:30 28,0 C 20,7 C 28,0 C 33,2 C 33,2 C 5,2 C 50 % 49 % 1012,6 hPa 0,0 l/m 4,3 km/h (1 Bft) SW 225 5 min 16,6 C 33,2 C 5,5 km/h (1 Bft)
15.06.2019 17:35 27,9 C 20,7 C 27,6 C 32,3 C 32,3 C 4,4 C 50 % 51 % 1012,6 hPa 0,0 l/m 3,9 km/h (1 Bft) O-NO 67 5 min 16,5 C 32,3 C 3,7 km/h (1 Bft)
15.06.2019 17:40 27,6 C 20,7 C 27,4 C 31,6 C 31,6 C 4,0 C 50 % 51 % 1012,6 hPa 0,0 l/m 3,9 km/h (1 Bft) W 270 5 min 16,2 C 31,6 C 3,5 km/h (1 Bft)
15.06.2019 17:45 27,5 C 20,7 C 27,3 C 31,1 C 31,1 C 3,6 C 51 % 51 % 1012,4 hPa 0,0 l/m 3,1 km/h (1 Bft) NO 45 5 min 16,4 C 31,1 C 4,8 km/h (1 Bft)
15.06.2019 17:50 27,5 C 20,7 C 27,4 C 31,5 C 31,5 C 4,0 C 51 % 52 % 1012,4 hPa 0,0 l/m 3,1 km/h (1 Bft) S-SW 202 5 min 16,4 C 31,5 C 4,5 km/h (1 Bft)
15.06.2019 17:55 27,6 C 20,7 C 27,4 C 32,4 C 32,4 C 4,8 C 50 % 51 % 1012,4 hPa 0,0 l/m 3,5 km/h (1 Bft) S 180 5 min 16,2 C 32,4 C 3,7 km/h (1 Bft)
15.06.2019 18:00 27,6 C 20,7 C 27,4 C 32,9 C 32,9 C 5,3 C 51 % 52 % 1012,4 hPa 0,0 l/m 3,1 km/h (1 Bft) W 270 5 min 16,5 C 32,9 C 2,1 km/h (1 Bft)
15.06.2019 18:05 27,6 C 20,7 C 27,5 C 33,3 C 33,3 C 5,7 C 52 % 53 % 1012,6 hPa 0,0 l/m 2,9 km/h (1 Bft) W 270 5 min 16,8 C 33,3 C 3,7 km/h (1 Bft)
15.06.2019 18:11 27,7 C 20,7 C 27,6 C 33,3 C 33,3 C 5,6 C 51 % 51 % 1012,6 hPa 0,0 l/m 3,5 km/h (1 Bft) N 0 6 min 16,6 C 33,3 C 5,6 km/h (1 Bft)
15.06.2019 18:26 27,3 C 20,7 C 27,1 C 32,5 C 32,5 C 5,2 C 51 % 52 % 1012,8 hPa 0,0 l/m 3,5 km/h (1 Bft) W-SW 247 15 min 16,3 C 32,5 C 0,0 km/h (0 Bft)
15.06.2019 18:35 27,2 C 20,7 C 26,9 C 32,5 C 32,5 C 5,3 C 51 % 51 % 1012,8 hPa 0,0 l/m 3,1 km/h (1 Bft) S 180 9 min 16,2 C 32,5 C 5,8 km/h (2 Bft)
15.06.2019 18:40 27,1 C 20,7 C 26,8 C 32,3 C 32,3 C 5,2 C 50 % 51 % 1012,8 hPa 0,0 l/m 3,5 km/h (1 Bft) W-SW 247 5 min 15,8 C 32,3 C 5,0 km/h (1 Bft)
15.06.2019 18:45 27,1 C 20,7 C 26,7 C 31,8 C 31,8 C 4,7 C 50 % 52 % 1013,3 hPa 0,0 l/m 2,9 km/h (1 Bft) W-SW 247 5 min 15,8 C 31,8 C 2,9 km/h (1 Bft)
15.06.2019 18:50 26,9 C 20,7 C 26,4 C 31,4 C 31,4 C 4,5 C 51 % 52 % 1013,3 hPa 0,0 l/m 2,1 km/h (1 Bft) S 180 5 min 15,9 C 31,4 C 3,1 km/h (1 Bft)
15.06.2019 18:55 26,8 C 20,7 C 26,3 C 30,8 C 30,8 C 4,0 C 52 % 53 % 1013,3 hPa 0,0 l/m 1,6 km/h (1 Bft) SO 135 5 min 16,1 C 30,8 C 3,1 km/h (1 Bft)
15.06.2019 19:00 26,7 C 20,7 C 26,2 C 30,8 C 30,8 C 4,1 C 52 % 53 % 1013,3 hPa 0,0 l/m 2,1 km/h (1 Bft) NW 315 5 min 16,0 C 30,8 C 4,8 km/h (1 Bft)
15.06.2019 19:05 26,7 C 20,7 C 26,1 C 30,8 C 30,8 C 4,1 C 52 % 53 % 1013,1 hPa 0,0 l/m 2,9 km/h (1 Bft) S-SO 157 5 min 16,0 C 30,8 C 5,0 km/h (1 Bft)
15.06.2019 19:10 26,5 C 20,8 C 25,9 C 30,4 C 30,4 C 3,9 C 52 % 54 % 1013,1 hPa 0,0 l/m 3,4 km/h (1 Bft) S 180 5 min 15,8 C 30,4 C 4,2 km/h (1 Bft)
15.06.2019 19:15 26,4 C 20,8 C 25,9 C 29,8 C 29,8 C 3,4 C 53 % 55 % 1013,1 hPa 0,0 l/m 3,2 km/h (1 Bft) W 270 5 min 16,0 C 29,8 C 2,4 km/h (1 Bft)
15.06.2019 19:20 26,4 C 20,8 C 25,9 C 30,0 C 30,0 C 3,6 C 53 % 55 % 1013,1 hPa 0,0 l/m 2,7 km/h (1 Bft) S-SW 202 5 min 16,0 C 30,0 C 2,6 km/h (1 Bft)
15.06.2019 19:25 26,3 C 20,8 C 25,8 C 30,1 C 30,1 C 3,8 C 53 % 55 % 1013,2 hPa 0,0 l/m 2,6 km/h (1 Bft) W 270 5 min 15,9 C 30,1 C 3,1 km/h (1 Bft)
15.06.2019 19:30 26,3 C 20,8 C 25,7 C 30,2 C 30,2 C 3,9 C 53 % 55 % 1013,2 hPa 0,0 l/m 2,1 km/h (1 Bft) S-SO 157 5 min 15,9 C 30,2 C 2,6 km/h (1 Bft)
15.06.2019 19:35 26,3 C 20,8 C 25,5 C 30,0 C 30,0 C 3,7 C 53 % 55 % 1013,2 hPa 0,0 l/m 2,1 km/h (1 Bft) SW 225 5 min 15,9 C 30,0 C 5,3 km/h (1 Bft)
15.06.2019 19:40 26,1 C 20,8 C 25,4 C 30,0 C 30,0 C 3,9 C 53 % 56 % 1013,2 hPa 0,0 l/m 2,4 km/h (1 Bft) SW 225 5 min 15,8 C 30,0 C 2,9 km/h (1 Bft)
15.06.2019 19:45 26,0 C 20,8 C 25,3 C 29,8 C 29,8 C 3,8 C 54 % 56 % 1013,6 hPa 0,0 l/m 2,3 km/h (1 Bft) W-SW 247 5 min 16,0 C 29,8 C 5,3 km/h (1 Bft)
15.06.2019 19:50 26,0 C 20,8 C 25,2 C 29,6 C 29,6 C 3,6 C 54 % 57 % 1013,6 hPa 0,0 l/m 1,9 km/h (1 Bft) SO 135 5 min 16,0 C 29,6 C 2,3 km/h (1 Bft)
15.06.2019 19:55 25,8 C 20,8 C 25,1 C 29,4 C 29,4 C 3,6 C 54 % 57 % 1013,6 hPa 0,0 l/m 1,8 km/h (1 Bft) W-SW 247 5 min 15,8 C 29,4 C 4,3 km/h (1 Bft)
15.06.2019 20:00 25,9 C 20,8 C 25,1 C 29,3 C 29,3 C 3,4 C 54 % 58 % 1013,6 hPa 0,0 l/m 1,6 km/h (1 Bft) SW 225 5 min 15,9 C 29,3 C 2,4 km/h (1 Bft)
15.06.2019 20:05 25,7 C 20,8 C 24,9 C 29,2 C 29,2 C 3,5 C 54 % 57 % 1013,8 hPa 0,0 l/m 1,1 km/h (1 Bft) S 180 5 min 15,7 C 29,2 C 1,6 km/h (1 Bft)
15.06.2019 20:11 25,6 C 20,8 C 24,8 C 29,1 C 29,1 C 3,5 C 54 % 58 % 1013,8 hPa 0,0 l/m 1,1 km/h (1 Bft) N 0 6 min 15,6 C 29,1 C 2,7 km/h (1 Bft)
15.06.2019 20:26 25,2 C 20,7 C 24,3 C 27,9 C 27,9 C 2,7 C 55 % 59 % 1013,7 hPa 0,0 l/m 1,4 km/h (1 Bft) W 270 15 min 15,5 C 27,9 C 0,0 km/h (0 Bft)
15.06.2019 20:35 24,9 C 20,7 C 24,0 C 27,1 C 27,1 C 2,2 C 55 % 58 % 1013,7 hPa 0,0 l/m 2,1 km/h (1 Bft) S 180 9 min 15,2 C 27,1 C 5,0 km/h (1 Bft)
15.06.2019 20:40 24,8 C 20,7 C 23,8 C 26,8 C 26,8 C 2,0 C 55 % 58 % 1013,7 hPa 0,0 l/m 1,8 km/h (1 Bft) W-NW 292 5 min 15,1 C 26,8 C 2,4 km/h (1 Bft)
15.06.2019 20:45 24,7 C 20,7 C 23,7 C 26,0 C 26,0 C 1,3 C 55 % 58 % 1013,7 hPa 0,0 l/m 1,8 km/h (1 Bft) W-SW 247 5 min 15,0 C 26,0 C 1,8 km/h (1 Bft)
15.06.2019 20:50 24,5 C 20,7 C 23,6 C 25,2 C 25,2 C 0,7 C 56 % 59 % 1013,7 hPa 0,0 l/m 1,6 km/h (1 Bft) W-SW 247 5 min 15,1 C 25,2 C 3,5 km/h (1 Bft)
15.06.2019 20:55 24,3 C 20,7 C 23,4 C 24,5 C 24,5 C 0,2 C 56 % 59 % 1013,7 hPa 0,0 l/m 1,4 km/h (1 Bft) W-NW 292 0 min 14,9 C 24,5 C 1,6 km/h (1 Bft)
15.06.2019 21:00 24,3 C 20,7 C 23,3 C 24,2 C 24,1 C 0,0 C 56 % 59 % 1013,7 hPa 0,0 l/m 1,6 km/h (1 Bft) W-SW 247 0 min 14,9 C 24,1 C 2,3 km/h (1 Bft)
15.06.2019 21:05 24,0 C 20,7 C 23,0 C 23,9 C 23,6 C 0,0 C 56 % 60 % 1014,1 hPa 0,0 l/m 1,0 km/h (0 Bft) SW 225 0 min 14,7 C 23,6 C 0,0 km/h (0 Bft)
15.06.2019 21:10 23,9 C 20,7 C 22,9 C 23,7 C 23,3 C 0,0 C 56 % 61 % 1014,1 hPa 0,0 l/m 0,8 km/h (0 Bft) S-SW 202 0 min 14,6 C 23,3 C 1,6 km/h (1 Bft)
15.06.2019 21:15 23,8 C 20,7 C 22,7 C 23,5 C 22,9 C 0,0 C 57 % 62 % 1014,1 hPa 0,0 l/m 0,2 km/h (0 Bft) S 180 0 min 14,8 C 22,9 C 0,0 km/h (0 Bft)
15.06.2019 21:20 23,6 C 20,7 C 22,6 C 23,3 C 22,7 C 0,0 C 57 % 62 % 1014,1 hPa 0,0 l/m 0,3 km/h (0 Bft) W-SW 247 0 min 14,6 C 22,7 C 1,6 km/h (1 Bft)
15.06.2019 21:25 23,4 C 20,7 C 22,3 C 23,1 C 22,4 C 0,0 C 58 % 62 % 1014,6 hPa 0,0 l/m 0,6 km/h (0 Bft) SW 225 0 min 14,7 C 22,4 C 4,2 km/h (1 Bft)
15.06.2019 21:30 23,4 C 20,8 C 22,3 C 23,0 C 22,2 C 0,0 C 58 % 63 % 1014,6 hPa 0,0 l/m 1,0 km/h (0 Bft) S-SW 202 0 min 14,7 C 22,2 C 0,0 km/h (0 Bft)
15.06.2019 21:35 23,2 C 20,8 C 22,1 C 22,8 C 22,0 C 0,0 C 59 % 63 % 1014,6 hPa 0,0 l/m 1,4 km/h (1 Bft) NW 315 0 min 14,7 C 22,0 C 4,8 km/h (1 Bft)
15.06.2019 21:40 23,1 C 20,7 C 22,1 C 22,7 C 21,9 C 0,0 C 59 % 63 % 1014,6 hPa 0,0 l/m 1,1 km/h (1 Bft) SW 225 0 min 14,6 C 21,9 C 0,0 km/h (0 Bft)
15.06.2019 21:45 22,9 C 20,7 C 21,9 C 22,5 C 21,7 C 0,0 C 60 % 64 % 1015,0 hPa 0,0 l/m 1,0 km/h (0 Bft) S-SW 202 0 min 14,7 C 21,7 C 2,6 km/h (1 Bft)
15.06.2019 21:50 22,8 C 20,7 C 21,8 C 22,4 C 21,5 C 0,0 C 60 % 64 % 1015,0 hPa 0,0 l/m 0,5 km/h (0 Bft) S-SW 202 0 min 14,6 C 21,5 C 0,0 km/h (0 Bft)
15.06.2019 21:55 22,6 C 20,7 C 21,7 C 22,2 C 21,3 C 0,0 C 61 % 65 % 1015,0 hPa 0,0 l/m 0,3 km/h (0 Bft) S-SW 202 0 min 14,7 C 21,3 C 0,0 km/h (0 Bft)
15.06.2019 22:00 22,7 C 20,7 C 21,6 C 22,2 C 21,1 C 0,0 C 61 % 66 % 1015,0 hPa 0,0 l/m 0,3 km/h (0 Bft) W-SW 247 0 min 14,8 C 21,1 C 1,9 km/h (1 Bft)
15.06.2019 22:05 22,4 C 20,7 C 21,4 C 21,9 C 21,0 C 0,0 C 62 % 66 % 1015,5 hPa 0,0 l/m 0,5 km/h (0 Bft) W-SW 247 0 min 14,8 C 21,0 C 0,0 km/h (0 Bft)
15.06.2019 22:11 22,3 C 20,7 C 21,4 C 21,8 C 20,9 C 0,0 C 62 % 65 % 1015,5 hPa 0,0 l/m 1,3 km/h (1 Bft) N 0 0 min 14,7 C 20,9 C 5,6 km/h (1 Bft)
15.06.2019 22:26 22,0 C 20,7 C 21,1 C 21,6 C 20,8 C 0,0 C 63 % 67 % 1015,7 hPa 0,0 l/m 0,6 km/h (0 Bft) W-SW 247 0 min 14,6 C 20,8 C 0,0 km/h (0 Bft)
15.06.2019 22:35 21,9 C 20,6 C 20,9 C 21,4 C 20,4 C 0,0 C 64 % 67 % 1015,7 hPa 0,0 l/m 0,8 km/h (0 Bft) SO 135 0 min 14,8 C 20,4 C 1,6 km/h (1 Bft)
15.06.2019 22:40 21,7 C 20,6 C 20,8 C 21,2 C 20,3 C 0,0 C 64 % 68 % 1015,7 hPa 0,0 l/m 0,8 km/h (0 Bft) S 180 0 min 14,6 C 20,3 C 2,3 km/h (1 Bft)
15.06.2019 22:45 21,5 C 20,6 C 20,8 C 21,1 C 20,2 C 0,0 C 65 % 68 % 1015,6 hPa 0,0 l/m 0,8 km/h (0 Bft) S-SO 157 0 min 14,6 C 20,2 C 0,0 km/h (0 Bft)
15.06.2019 22:50 21,5 C 20,6 C 20,7 C 21,0 C 20,1 C 0,0 C 66 % 68 % 1015,6 hPa 0,0 l/m 1,1 km/h (1 Bft) NW 315 0 min 14,9 C 20,1 C 2,9 km/h (1 Bft)
15.06.2019 22:55 21,3 C 20,6 C 20,7 C 20,9 C 20,1 C 0,0 C 67 % 69 % 1015,6 hPa 0,0 l/m 1,6 km/h (1 Bft) S-SO 157 0 min 14,9 C 20,1 C 0,0 km/h (0 Bft)
15.06.2019 23:00 21,3 C 20,6 C 20,7 C 20,9 C 20,1 C 0,0 C 67 % 69 % 1015,6 hPa 0,0 l/m 1,9 km/h (1 Bft) SO 135 0 min 14,9 C 20,1 C 2,3 km/h (1 Bft)
15.06.2019 23:05 21,3 C 20,6 C 20,7 C 20,9 C 20,1 C 0,0 C 68 % 70 % 1015,8 hPa 0,0 l/m 2,3 km/h (1 Bft) W-SW 247 0 min 15,1 C 20,1 C 11,1 km/h (2 Bft)
15.06.2019 23:10 21,2 C 20,6 C 20,6 C 20,8 C 20,1 C 0,0 C 68 % 70 % 1015,8 hPa 0,0 l/m 1,9 km/h (1 Bft) W-NW 292 0 min 15,1 C 20,1 C 2,1 km/h (1 Bft)
15.06.2019 23:15 21,1 C 20,6 C 20,5 C 20,8 C 20,1 C 0,0 C 69 % 70 % 1015,8 hPa 0,0 l/m 2,3 km/h (1 Bft) W 270 0 min 15,2 C 20,1 C 3,9 km/h (1 Bft)
15.06.2019 23:20 21,1 C 20,6 C 20,4 C 20,7 C 20,0 C 0,0 C 69 % 70 % 1015,8 hPa 0,0 l/m 2,1 km/h (1 Bft) N-NO 22 0 min 15,2 C 20,0 C 0,0 km/h (0 Bft)
15.06.2019 23:25 20,9 C 20,6 C 20,4 C 20,6 C 19,9 C 0,0 C 69 % 71 % 1016,2 hPa 0,0 l/m 1,6 km/h (1 Bft) N 360 0 min 15,0 C 19,9 C 6,0 km/h (2 Bft)
15.06.2019 23:30 20,8 C 20,6 C 20,3 C 20,5 C 19,8 C 0,0 C 70 % 71 % 1016,2 hPa 0,0 l/m 1,1 km/h (1 Bft) W 270 0 min 15,1 C 19,8 C 0,0 km/h (0 Bft)
15.06.2019 23:35 20,7 C 20,5 C 20,2 C 20,4 C 19,7 C 0,0 C 70 % 70 % 1016,2 hPa 0,0 l/m 1,1 km/h (1 Bft) N-NW 337 0 min 15,0 C 19,7 C 0,0 km/h (0 Bft)
15.06.2019 23:40 20,7 C 20,5 C 20,2 C 20,3 C 19,5 C 0,0 C 70 % 70 % 1016,2 hPa 0,0 l/m 0,6 km/h (0 Bft) NW 315 0 min 15,0 C 19,5 C 2,7 km/h (1 Bft)
15.06.2019 23:45 20,5 C 20,5 C 20,1 C 20,2 C 19,5 C 0,0 C 70 % 71 % 1016,5 hPa 0,0 l/m 0,6 km/h (0 Bft) NW 315 0 min 14,8 C 19,5 C 0,0 km/h (0 Bft)
15.06.2019 23:50 20,5 C 20,5 C 20,0 C 20,1 C 19,4 C 0,0 C 70 % 71 % 1016,5 hPa 0,0 l/m 0,6 km/h (0 Bft) O-NO 67 0 min 14,8 C 19,4 C 0,0 km/h (0 Bft)
15.06.2019 23:55 20,4 C 20,6 C 19,8 C 20,0 C 19,2 C 0,0 C 70 % 71 % 1016,5 hPa 0,0 l/m 0,3 km/h (0 Bft) NW 315 0 min 14,7 C 19,2 C 5,5 km/h (1 Bft)
_ Min-Zeit 00:11 01:00 00:05 00:11 23:55 00:00 14:11 17:30 07:25 - 00:00 - - - 21:20 23:55 00:00
Minimum _ 20,1 C 19,7 C 19,3 C 19,8 C 19,2 C 0,0 C 45 % 49 % 1008,8 hPa - 0,0 km/h (0 Bft) - - - 14,6 C 19,2 C 0,0 km/h (0 Bft)
_ Max-Zeit 13:50 19:10 14:26 09:40 09:40 09:40 06:26 05:50 23:45 00:00 03:35 - - 08:26 09:30 09:40 16:26
Maximum _ 31,0 C 20,8 C 29,7 C 38,8 C 38,8 C 9,6 C 85 % 86 % 1016,5 hPa 0,0 l/m 6,4 km/h
NO (2 Bft)
- - 15 min 22,2 C 38,8 C 17,5 km/h
S (3 Bft)
Durchschnitt _ 25,2 C 20,2 C 24,1 C 27,7 C 27,6 C 2,6 C 64 % 68 % 1011,7 hPa #0,0 l/m 2,1 km/h (1 Bft) O-NO - #11:56 h 17,6 C 27,6 C 3,3 km/h (1 Bft)
2019 www.wetterstation-wechselburg.de